Regional Weather Roundup
Issued by NWS Cleveland, OH

Home | Current Version | Previous Version | Graphics & Text | Print | Product List | Glossary On
Versions: 1 2 3 4 5 6 7 8 9 10 11 12 13 14 15 16 17 18 19 20 21 22 23 24 25 26 27 28 29 30 31 32 33 34 35 36 37 38 39 40 41 42 43 44 45 46 47 48 49 50
000
ASUS41 KCLE 200702
RWRCLE
OHIO REGIONAL WEATHER ROUNDUP
NATIONAL WEATHER SERVICE CLEVELAND, OH
300 AM EDT SAT SEP 20 2014

NOTE: "FAIR" INDICATES FEW OR NO CLOUDS BELOW 12,000 FEET WITH NO
SIGNIFICANT WEATHER AND/OR OBSTRUCTIONS TO VISIBILITY.

OHZ001>008-015>018-024>027-034-035-043-044-200800-
   NORTHWEST OHIO

CITY           SKY/WX    TMP DP  RH WIND       PRES   REMARKS
DEFIANCE       CLEAR     51  45  79 CALM      30.02F
FINDLAY        PTCLDY    52  46  80 S7        30.03F
TOLEDO EXPRESS PTCLDY    51  48  89 S3        30.02F
TOLEDO EXEC    PTCLDY    52  46  80 S5        30.03F
LIMA           PTCLDY    57  48  72 S9        30.05S
$$

OHZ009>014-019>023-028>033-038-089-200800-
   NORTHEAST OHIO

CITY           SKY/WX    TMP DP  RH WIND       PRES   REMARKS
CLE-HOPKINS    MOCLDY    63  57  81 S13       30.07F
CLE-LAKEFRONT  MOCLDY    62  56  80 S14       30.04F
CUY CO. ARPT   NOT AVBL
LORAIN-ELYRIA  MOCLDY    60  53  77 S9        30.07R
ASHTABULA      PTCLDY    59  55  87 S12       30.09F
AKRON-CANTON   PTCLDY    62  56  80 S12       30.09F
WOOSTER        PTCLDY    60  56  86 S6        30.09F
MANSFIELD      PTCLDY    59  56  89 S9        30.08S
YOUNGSTOWN     PTCLDY    60  56  86 S8        30.11S
$$

OHZ042-051>053-060>062-070>072-077>081-200800-
  SOUTHWEST OHIO

CITY           SKY/WX    TMP DP  RH WIND       PRES   REMARKS
CINC-COVINGTON PTCLDY    62  55  77 S6        30.07F
CINC-LUNKEN    PTCLDY    52  51  97 CALM      30.08F FOG
HAMILTON       PTCLDY    51  50  96 CALM      30.07F FOG
DAYTON         PTCLDY    62  52  69 S7        30.08S
WRIGHT-PAT AFB PTCLDY    55  50  83 E2        30.07S
DAYTON GENERAL PTCLDY    60  53  77 S5        30.06F
WILMINGTON     CLEAR     58  53  84 S7        30.07F
$$

OHZ036-037-039>041-045>050-054>059-063>069-073>076-082>088-200800-
  CENTRAL AND SOUTHEAST OHIO

CITY           SKY/WX    TMP DP  RH WIND       PRES   REMARKS
COLUMBUS       PTCLDY    62  54  74 SE3       30.07F
OSU AIRPORT    PTCLDY    60  53  77 S6        30.07F
BOLTON FIELD   NOT AVBL
RICKENBACK AFB NOT AVBL
NEWARK         PTCLDY    51  49  92 CALM      30.09S FOG
MARION         PTCLDY    54  50  86 S7        30.07S
LANCASTER      PTCLDY    62  58  86 SE5       30.09F
ZANESVILLE     CLEAR     61  56  83 S9        30.10F
NEW PHILLY     CLEAR     61  57  87 SE3       30.11F
$$


USA.gov is the U.S. government's official web portal to all federal, state and local government web resources and services.